This is the latest recevied weather packets stored in our database for station/object KU9TRY. If no packets are shown the sender has not sent any weather packets the latest 10 day(s).
| Time | Temp. | Humidity | Pressure | Rain* | Wind** | Luminosity | Snow |
|---|---|---|---|---|---|---|---|
| 1787881068 | 23.89° C | 84% | 1015.2 hPa | 0 mm | - | 0 W/m² | - |
| 1787880763 | 23.89° C | 83% | 1015.3 hPa | 0 mm | - | 0 W/m² | - |
| 1787880462 | 23.89° C | 82% | 1014.9 hPa | 0 mm | - | 0 W/m² | - |
| 1787880157 | 24.44° C | 80% | 1015 hPa | 0 mm | - | 0 W/m² | - |
| 1787879856 | 24.44° C | 80% | 1014.9 hPa | 0 mm | - | 0 W/m² | - |
| 1787879552 | 24.44° C | 80% | 1014.7 hPa | 0 mm | - | 0 W/m² | - |
| 1787879247 | 23.89° C | 80% | 1014.7 hPa | 0 mm | - | 0 W/m² | - |
| 1787878945 | 23.89° C | 80% | 1014.6 hPa | 0 mm | - | 0 W/m² | - |
| 1787878644 | 23.89° C | 80% | 1014.6 hPa | 0 mm | - | 0 W/m² | - |
| 1787878344 | 24.44° C | 77% | 1014.4 hPa | 0 mm | - | 0 W/m² | - |
| 1787878040 | 24.44° C | 77% | 1014.3 hPa | 0 mm | - | 0 W/m² | - |
| 1787877736 | 25° C | 77% | 1014.2 hPa | 0 mm | - | 0 W/m² | - |
| 1787877430 | 25° C | 75% | 1014.1 hPa | 0 mm | - | 0 W/m² | - |
| 1787877127 | 25.56° C | 73% | 1014.2 hPa | 0 mm | - | 0 W/m² | - |
| 1787876826 | 25.56° C | 73% | 1014.3 hPa | 0 mm | - | 1 W/m² | - |
| 1787876521 | 25.56° C | 71% | 1014.1 hPa | 0 mm | - | 1 W/m² | - |
| 1787876220 | 25.56° C | 71% | 1014.1 hPa | 0 mm | - | 3 W/m² | - |
| 1787875915 | 26.67° C | 71% | 1014.2 hPa | 0 mm | - | 6 W/m² | - |
| 1787875610 | 26.67° C | 71% | 1013.8 hPa | 0 mm | - | 7 W/m² | - |
| 1787875309 | 26.67° C | 67% | 1013.9 hPa | 0 mm | - | 9 W/m² | - |
| 1787875007 | 27.22° C | 65% | 1013.6 hPa | 0 mm | - | 12 W/m² | - |
| 1787874703 | 27.22° C | 64% | 1013.7 hPa | 0 mm | - | 13 W/m² | - |
| 1787874401 | 27.22° C | 64% | 1013.9 hPa | 0 mm | - | 15 W/m² | - |
| 1787874096 | 27.22° C | 64% | 1013.8 hPa | 0 mm | - | 17 W/m² | - |
| 1787873796 | 27.22° C | 64% | 1013.8 hPa | 0 mm | - | 20 W/m² | - |
* Rain latest hour (hover to see other rain measurements)
** Current wind speed in m/s (hover to see current wind gust speed)